SCP
-0 -0 -0 0 0 0 0 0 0 0 0 0 -0 -0 0 0 0 0 0 0 0 0 0 0 0 -0 0 0 0 0 0 -0 -0 -0 -0 -0 -0 -0 -0 -0 -0 -0 -0 -0 -0 -0 -0 -0 -0
0 -0 0 0 -0 0 -0 -0 0 0 0 0 0 0 -0 0 0 0 0 0 0 0 0 0 0 -0 -0 -0 -0 0 -0 -0 -0 -0 -0 -0 -0 -0 -0 -0 -0 -0 -0 -0 -0 -0 0 -0 -0
-0 0 0 0 0 0 -0 -0 0 0 0 0 0 0 -0 0 0 -0 0 0 0 0 0 0 -0 -0 -0 -0 -0 -0 0 -0 -0 -0 -0 -0 -0 -0 -0 -0 -0 -0 -0 -0 -0 -0 0 0 0
0 0 0 0 0 0 0 -0 0 -0 0 0 0 0 0 0 0 0 0 -0 -0 0 0 -0 -0 -0 -0 -0 -0 -0 -0 -0 -0 -0 -0 -0 -0 -0 -0 0 -0 0 0 0 0 0 0 0 0
0 0 0 0 0 0 0 0 0 0 -0 -0 -0 -0 0 0 0 0 -0 -0 -0 -0 -0 -0 -0 -0 -0 -0 -0 -0 -0 -0 -0 -0 -0 -0 -0 -0 -0 -0 0 0 0 -0 -0 0 0 0 0
0 0 0 0 0 0 0 0 0 0 -0 -0 -0 -0 -0 0 0 0 -0 -0 -0 0 0 -0 -0 -0 -0 -0 -0 -0 -0 -0 -0 -0 -0 -0 -0 -0 -0 -0 -0 0 0 0 -0 0 0 0 0
0 0 0 0 0 0 0 0 0 0 0 -0 -0 -0 -0 -0 0 0 0 -0 0 0 0 0 0 -0 -0 -0 -0 -0 -0 -0 -0 -0 -0 -0 -0 -0 -0 -0 -0 -0 0 0 0 0 0 0 0
0 0 0 0 0 0 0 0 0 0 0 0 -0 -0 -0 -0 0 0 0 0 0 0 0 0 0 0 0 0 0 -0 -0 -0 -0 -0 -0 -0 -0 -0 -0 -0 -0 -0 0 0 0 0 0 0 0
0 0 0 0 0 0 0 0 0 0 0 0 0 0 0 0 -0 0 0 0 0 0 0 0 0 0 0 0 0 0 0 0 0 0 0 0 0 0 0 0 0 0 0 0 0 0 0 0 0
0 0 0 0 0 0 0 0 0 0 0 0 0 0 0 0 0 -0 -0 0 0 0 0 0 0 0 0 0 0 0 0 0 0 0 0 0 0 0 0 0 0 0 0 0 0 0 0 0 0
0 0 0 0 0 0 0 0 0 0 0 0 0 0 0 0 0 0 0 0 0 0 0 0 0 0 0 0 0 0 0 0 0 0 0 0 0 0 0 0 0 0 0 0 0 0 0 0 0
0 0 0 0 0 0 0 0 0 0 0 0 0 0 0 0 0 0 0 0 0 0 0 0 0 0 0 0 0 0 0 0 0 0 0 0 0 0 0 0 0 0 0 0 0 0 0 0 0
0 0 0 0 0 0 0 0 0 0 0 0 0 0 0 0 0 0 0 0 0 0 0 0 0 0 0 0 0 0 0 0 0 0 0 0 0 0 0 0 0 0 0 0 0 0 0 0 0
0 0 0 0 0 0 0 0 0 0 0 0 0 0 0 0 0 0 0 0 0 0 0 0 0 0 0 0 0 0 0 0 0 0 0 0 0 0 0 0 0 0 0 0 0 0 0 0 0
0 0 0 0 0 0 0 0 0 0 0 0 0 0 0 0 0 0 0 0 0 0 0 0 0 0 0 0 0 0 0 0 0 0 0 0 0 0 0 0 0 0 0 0 0 0 0 0 0
0 0 0 0 0 0 0 0 0 0 0 0 0 0 0 0 0 0 0 0 0 0 0 0 0 0 0 0 0 0 0 0 0 0 0 0 0 0 0 0 0 0 0 0 0 0 0 0 0
0 0 0 0 0 0 0 0 0 0 0 0 0 0 0 0 0 0 0 0 0 0 0 0 0 0 0 0 0 0 0 0 0 0 0 0 0 0 0 0 0 0 0 0 0 0 0 0 0
0 0 0 0 0 0 0 0 0 0 0 0 0 0 0 0 -0 0 0 0 0 0 0 0 0 0 0 0 0 0 0 0 0 0 0 0 0 0 0 0 0 0 0 0 0 0 0 0 0
0 0 0 0 0 0 0 0 0 0 0 0 0 0 0 0 0 0 0 0 0 0 0 0 0 0 0 0 0 0 0 0 0 0 0 0 0 0 0 0 0 0 0 0 0 0 0 0 0
0 0 0 0 0 0 0 0 0 0 0 0 0 0 0 0 0 0 0 0 0 0 0 0 0 0 0 0 0 0 0 0 0 0 0 0 0 0 0 0 0 0 0 0 0 0 0 0 0
0 0 0 0 0 0 0 0 0 0 0 0 0 0 0 0 0 0 0 0 0 0 0 0 0 0 0 0 0 0 0 0 0 0 0 0 0 0 0 0 0 0 0 0 0 0 0 0 0
0 0 0 0 0 0 0 -0 0 0 0 0 0 0 0 0 0 0 0 0 0 0 0 0 0 0 0 0 0 0 0 0 0 0 0 0 0 0 0 0 0 0 0 0 0 0 0 0 0
0 0 0 0 0 0 0 0 -0 -0 0 0 0 0 0 0 0 0 0 0 0 0 0 0 0 0 0 0 0 0 0 0 0 0 0 0 0 0 0 0 0 0 0 0 0 0 0 0 0
0 0 0 0 0 0 0 0 -0 -0 -0 0 0 0 0 0 0 0 0 0 0 0 0 0 0 0 0 0 0 0 0 0 0 0 0 0 0 0 0 0 0 0 0 0 0 0 0 0 0
0 0 0 0 0 0 0 0 0 0 0 0 0 0 0 0 0 0 0 0 0 0 0 0 0 0 0 0 0 0 0 0 0 0 0 0 0 0 0 0 0 0 0 0 0 0 0 0 0
0 0 0 0 0 0 0 0 -0 -0 0 0 0 0 0 0 -0 0 0 0 0 0 0 0 0 0 0 0 0 0 0 0 0 0 0 0 0 0 0 0 0 0 0 0 0 0 0 0 0
0 0 0 0 0 0 0 0 0 0 0 0 0 0 -0 -0 -0 0 0 0 0 0 0 0 0 0 0 0 0 0 0 0 0 0 0 0 0 0 0 0 0 0 0 0 0 0 0 0 0
0 0 0 0 0 0 0 0 0 0 0 0 0 0 0 0 0 0 0 0 0 0 0 0 0 0 0 0 0 0 0 0 0 0 0 0 0 0 0 0 0 0 0 0 0 0 0 0 0
0 0 0 0 0 0 0 0 0 0 0 0 0 0 0 0 0 0 0 0 0 0 0 0 0 0 0 0 0 0 0 0 0 0 0 0 0 0 0 0 0 0 0 0 0 0 0 0 0
0 0 0 0 0 0 0 0 0 0 0 0 0 0 -0 -0 -0 0 0 0 0 0 0 0 0 0 0 0 0 0 0 0 0 0 0 0 0 0 0 0 0 0 0 0 0 0 0 0 0
Wind_Speed_500mb
33 30 14 5 6 8 1 5 1 4 3 5 16 10 8 3 6 3 17 37 42 38 36 35 30 23 18 16 18 20 21 26 27 22 17 16 17 16 15 25 27 26 22 26 28 26 28 26 26
31 25 3 5 7 5 4 3 9 8 8 24 17 11 3 3 3 5 39 35 42 37 36 36 30 23 18 15 16 17 16 20 23 21 15 14 18 16 14 23 24 26 21 23 24 26 23 22 23
26 15 2 7 5 5 6 8 9 7 29 7 8 4 5 2 6 27 29 41 44 38 35 35 29 23 18 15 14 15 14 17 20 18 11 13 13 16 14 18 22 21 20 21 21 23 21 20 20
15 4 9 7 3 2 3 8 15 18 10 6 7 5 4 4 10 25 31 39 42 37 35 33 27 23 17 13 12 12 13 15 19 18 20 10 8 12 13 11 13 14 16 15 17 20 19 19 17
8 3 7 7 3 5 5 9 28 11 9 8 11 4 3 9 15 29 32 35 38 38 36 32 26 22 18 15 13 12 13 15 23 19 25 18 6 6 10 11 10 10 10 11 12 15 15 15 14
3 4 7 4 3 4 2 15 15 11 8 11 7 12 8 18 23 24 32 31 32 33 34 31 26 22 18 16 14 13 12 13 15 17 19 18 14 6 9 12 10 7 7 8 6 8 8 9 10
7 6 8 8 4 2 8 22 13 13 9 8 5 10 6 24 24 26 33 30 32 33 32 31 26 22 20 17 16 15 14 13 13 15 13 14 16 15 11 12 10 7 8 8 7 7 5 3 3
3 8 10 6 8 7 12 21 11 18 11 7 14 6 6 28 27 32 36 32 32 34 34 33 29 23 20 19 18 16 15 15 15 17 17 12 16 18 14 13 13 12 10 11 11 11 9 7 5
5 7 8 14 14 8 16 11 11 12 14 15 16 7 6 25 34 37 41 39 38 39 37 35 32 28 24 22 20 18 17 16 16 17 17 15 13 13 12 12 10 13 15 15 15 16 16 15 13
5 6 14 7 11 10 21 16 25 13 14 14 14 17 12 25 36 42 46 46 45 41 41 39 36 33 29 26 24 21 20 18 16 16 18 18 17 16 17 16 12 10 16 19 19 21 23 22 20
5 9 7 4 3 10 18 16 18 19 6 21 28 22 18 30 35 38 40 42 40 38 39 39 38 37 35 32 30 29 27 24 21 18 17 19 20 21 22 21 21 18 14 16 21 25 26 27 27
4 5 3 3 6 5 10 14 13 24 9 18 22 20 23 29 31 33 34 35 40 39 36 36 36 38 39 38 37 34 33 30 28 24 23 22 21 22 22 24 24 23 22 22 24 27 30 31 32
5 3 4 6 2 4 6 5 5 19 18 14 21 23 27 29 27 26 28 28 31 35 34 35 37 38 38 42 42 41 38 36 32 31 29 28 27 27 26 25 26 27 27 27 27 28 30 34 36
3 4 4 4 5 4 5 5 6 14 21 22 19 22 26 29 29 30 34 32 34 33 33 34 37 37 39 41 42 43 41 39 37 36 34 34 32 32 32 31 29 28 28 29 29 32 34 36 40
1 6 8 8 8 6 6 11 15 15 20 31 26 23 28 31 35 38 31 31 31 32 32 35 38 41 42 42 42 41 41 40 40 37 37 37 36 34 33 33 34 32 31 32 34 35 38 42 43
4 7 3 3 8 4 14 15 7 28 32 32 30 32 40 41 43 41 39 39 39 39 39 38 41 44 46 47 46 45 41 40 41 39 37 37 36 35 35 36 34 32 35 37 39 39 41 45 47
10 4 6 11 3 5 5 12 6 9 21 36 40 44 44 44 48 49 47 48 48 47 46 47 47 48 48 49 50 49 47 45 43 41 41 37 37 37 38 39 37 35 38 41 43 46 47 50 50
12 9 6 7 6 3 3 20 14 17 17 26 30 40 47 51 62 57 58 59 56 57 58 55 54 54 50 50 52 54 52 50 47 47 44 41 39 39 40 42 41 40 43 44 46 49 49 54 57
9 5 4 6 3 5 9 12 26 33 34 39 47 54 55 55 52 50 52 53 51 50 49 56 58 58 58 58 57 56 55 49 48 47 45 43 41 39 40 43 44 42 44 44 46 49 53 57 56
8 7 6 6 5 2 11 18 27 30 27 53 58 61 68 72 76 74 70 65 60 54 48 45 47 48 54 64 64 61 57 53 48 46 43 40 38 38 39 40 41 41 42 43 45 47 52 56 56
2 8 7 4 8 3 11 13 10 7 11 34 51 66 72 76 76 74 69 65 62 63 61 58 51 46 44 40 54 66 67 63 55 46 38 33 31 30 29 30 34 38 41 43 45 46 49 54 57
5 13 11 4 8 7 7 11 11 14 19 13 58 56 56 57 59 66 64 55 54 64 65 65 65 60 52 47 43 52 59 60 54 49 44 39 36 35 36 37 38 40 43 46 46 47 48 51 53
10 8 11 7 7 3 5 2 13 6 14 29 3 6 4 16 32 42 39 44 36 29 32 40 52 62 58 50 43 37 41 45 47 48 47 46 46 45 45 46 43 44 44 44 46 45 43 44 48
14 10 10 7 5 2 13 11 7 9 13 8 4 7 34 31 34 27 28 30 34 30 30 27 35 51 49 44 41 39 36 36 40 43 44 45 45 46 44 40 39 40 40 39 38 40 43 45 50
3 12 2 4 2 11 2 6 11 17 20 13 21 39 36 27 30 20 9 16 24 28 25 20 21 28 33 32 30 30 30 31 33 36 38 38 36 33 32 36 38 41 41 42 43 46 49 51 52
16 12 9 13 8 6 5 13 11 16 37 46 46 36 29 23 19 13 5 14 25 27 25 26 25 24 23 21 19 19 19 21 23 26 28 30 33 36 38 41 42 42 43 44 44 46 48 50 55
11 11 9 10 4 3 8 12 18 15 20 31 37 24 22 10 17 18 23 28 33 35 34 30 27 23 18 15 15 16 18 21 25 28 30 32 34 35 36 37 37 37 38 39 42 46 48 50 53
9 14 6 4 3 9 11 10 12 9 14 11 20 28 21 10 24 31 34 38 39 37 34 30 22 16 13 9 8 12 15 18 21 24 26 28 30 33 35 37 40 42 43 45 47 50 50 53 57
7 7 4 8 10 11 5 12 14 17 9 13 13 12 20 9 28 33 37 38 37 35 31 28 22 14 10 7 7 12 17 20 24 28 30 32 34 35 37 40 43 44 45 47 49 52 54 58 62
5 12 16 9 9 6 3 26 9 14 11 13 25 26 17 8 28 38 37 38 38 36 32 27 22 16 9 8 12 17 22 24 27 31 34 36 37 36 37 39 42 44 46 48 49 52 55 58 62
Wind_Direction_500mb
339 347 348 140 66 67 151 239 182 154 165 165 135 161 193 153 170 184 156 158 157 159 161 160 160 149 140 130 127 133 136 144 146 141 133 131 131 134 118 128 141 112 100 102 105 103 104 100 99
337 345 40 106 90 82 257 223 189 197 152 125 117 123 154 214 175 154 149 157 158 164 163 162 160 157 148 139 135 135 140 144 157 156 142 113 115 136 140 132 144 118 109 108 101 99 106 105 100
333 346 47 91 104 162 189 200 182 162 152 139 127 137 157 205 156 153 156 161 160 166 166 163 162 160 155 147 141 137 144 137 149 156 147 131 121 126 140 124 131 133 123 118 105 99 101 100 96
340 341 62 82 138 248 232 173 163 132 194 196 160 119 154 180 160 163 158 164 162 165 166 166 166 165 162 155 149 146 147 150 139 135 124 153 123 119 128 123 119 118 132 127 110 109 101 95 89
337 38 62 83 292 273 251 171 156 151 163 173 166 194 148 148 149 161 166 170 169 166 167 171 171 171 169 169 165 162 159 158 151 155 151 154 166 123 128 139 127 136 140 142 127 115 108 98 86
104 89 70 161 264 307 123 159 154 157 165 168 178 153 155 163 155 166 169 172 173 174 171 176 177 179 180 178 174 172 173 170 176 172 163 157 185 187 160 153 139 159 170 173 157 136 121 101 88
133 98 173 158 196 183 178 160 160 175 174 205 190 140 177 176 166 169 169 174 177 179 181 184 187 186 186 186 183 181 181 179 185 191 191 177 176 187 191 191 183 179 196 206 216 197 176 141 100
141 89 130 184 180 206 170 168 176 174 196 191 181 199 171 183 174 168 172 179 184 186 191 194 195 196 196 196 193 193 191 188 189 200 212 215 198 192 203 215 213 206 214 223 227 232 228 232 247
157 74 177 190 155 202 163 169 175 176 159 179 194 213 170 177 182 179 180 184 188 193 198 201 204 205 207 208 206 206 206 206 204 210 221 226 223 229 229 230 220 214 221 229 236 241 245 249 256
119 138 214 198 180 174 172 177 165 162 167 205 210 217 211 184 190 192 191 192 194 197 201 205 209 212 215 217 219 222 226 225 222 223 231 234 236 241 250 258 274 244 239 228 237 244 250 255 260
185 197 198 170 173 158 160 171 175 153 217 203 208 210 206 189 193 203 205 206 205 203 206 211 213 216 220 224 226 228 232 235 237 237 241 240 241 248 257 261 269 276 270 253 250 250 255 260 263
249 252 197 139 153 164 166 156 179 194 198 205 206 209 211 198 202 206 210 213 213 213 215 218 220 224 225 228 231 235 238 242 245 247 246 248 250 253 258 263 266 268 270 265 262 258 255 259 264
159 332 213 267 240 168 175 198 212 224 217 204 202 214 210 207 202 206 216 221 224 225 225 227 229 231 233 236 239 239 240 243 247 249 251 252 253 256 259 263 265 266 269 269 266 265 263 263 264
313 271 300 291 255 256 198 214 210 228 214 208 203 207 209 213 210 211 214 221 226 229 230 232 238 240 241 243 247 248 249 251 250 252 253 254 255 255 257 260 265 268 269 269 269 267 266 265 264
359 346 333 220 222 241 187 286 226 206 203 217 215 213 221 223 221 226 229 233 239 244 244 243 244 243 245 248 251 253 253 254 255 254 255 257 256 259 261 263 265 269 272 272 271 271 272 271 272
99 48 126 295 175 242 162 256 296 232 225 229 233 235 234 234 235 236 237 240 242 245 247 251 250 249 249 250 251 254 254 256 259 258 256 255 260 262 264 267 271 273 271 274 275 276 276 276 278
18 180 205 309 186 342 179 269 261 243 215 239 244 245 244 243 241 238 240 245 248 251 251 251 251 253 253 253 254 255 256 254 255 256 257 257 258 264 269 271 273 275 276 274 276 277 280 283 284
193 190 200 235 349 50 231 271 258 259 284 275 266 258 255 254 249 247 249 253 254 254 253 253 250 250 252 254 254 254 255 254 254 255 257 258 258 262 269 274 277 277 277 278 279 281 283 284 286
108 133 180 233 320 308 235 252 278 282 283 270 263 264 264 258 258 253 249 250 252 251 252 249 251 250 248 247 247 249 250 253 254 256 257 260 263 266 268 273 276 277 279 285 284 283 282 284 286
157 142 223 282 344 324 313 284 272 261 250 259 260 260 260 262 263 261 260 257 254 254 252 247 249 252 252 249 248 249 253 256 257 259 260 262 264 265 267 271 276 278 278 280 283 283 285 285 287
227 164 180 229 344 16 332 287 307 305 256 268 263 260 262 263 267 269 267 263 259 254 250 251 249 245 246 252 247 245 247 250 250 249 253 260 264 265 262 266 271 276 279 281 282 284 285 286 288
205 200 183 174 35 248 20 288 305 290 299 243 271 261 266 274 273 270 270 267 263 257 253 251 248 242 239 241 247 243 242 242 244 248 256 259 259 259 262 265 268 273 276 279 283 279 281 283 285
224 153 160 133 160 17 330 256 267 282 286 267 352 286 295 328 313 283 270 258 256 240 241 249 243 230 228 232 237 243 241 241 244 249 253 256 258 260 263 266 269 272 274 275 277 281 285 282 282
150 85 61 63 114 281 218 187 253 209 226 304 183 283 313 319 325 307 268 241 229 227 227 230 228 224 228 227 230 232 235 236 238 244 250 256 261 264 266 270 271 271 270 274 277 278 279 281 282
214 113 349 351 332 235 79 196 258 268 258 236 268 299 309 311 319 325 302 239 217 202 202 203 207 213 218 224 224 222 225 230 238 244 248 253 259 264 269 268 268 270 274 277 278 279 280 282 281
185 169 164 208 204 256 117 233 240 237 279 282 288 299 297 298 297 278 186 178 182 184 183 184 187 199 194 198 205 215 229 239 246 254 259 264 269 271 270 270 271 272 273 276 279 282 285 286 288
194 207 166 105 71 34 221 276 289 282 282 289 295 314 320 283 241 199 171 168 166 168 173 180 185 188 191 205 224 240 248 254 258 260 263 264 266 267 268 270 270 272 275 278 281 282 285 287 288
169 162 91 11 163 260 249 263 230 277 261 280 310 342 334 271 193 176 167 166 169 174 181 183 186 184 181 190 225 245 255 261 269 273 274 274 275 276 277 279 280 281 283 283 284 286 289 290 292
142 201 176 143 174 203 265 260 219 230 250 261 273 7 349 279 205 187 181 179 181 181 185 183 180 184 192 201 232 251 257 265 272 277 280 280 280 279 278 279 281 282 282 283 285 288 291 291 292
257 218 188 169 218 239 194 255 195 215 216 235 285 309 317 296 212 201 199 194 191 187 191 196 198 206 229 263 273 272 269 270 273 277 280 282 282 280 280 279 281 282 283 282 284 288 290 291 292
Wind_Speed_850mb
33 30 14 5 6 8 1 5 1 4 3 5 16 10 8 3 6 3 17 37 42 38 36 35 30 23 18 16 18 20 21 26 27 22 17 16 17 16 15 25 27 26 22 26 28 26 28 26 26
31 25 3 5 7 5 4 3 9 8 8 24 17 11 3 3 3 5 39 35 42 37 36 36 30 23 18 15 16 17 16 20 23 21 15 14 18 16 14 23 24 26 21 23 24 26 23 22 23
26 15 2 7 5 5 6 8 9 7 29 7 8 4 5 2 6 27 29 41 44 38 35 35 29 23 18 15 14 15 14 17 20 18 11 13 13 16 14 18 22 21 20 21 21 23 21 20 20
15 4 9 7 3 2 3 8 15 18 10 6 7 5 4 4 10 25 31 39 42 37 35 33 27 23 17 13 12 12 13 15 19 18 20 10 8 12 13 11 13 14 16 15 17 20 19 19 17
8 3 7 7 3 5 5 9 28 11 9 8 11 4 3 9 15 29 32 35 38 38 36 32 26 22 18 15 13 12 13 15 23 19 25 18 6 6 10 11 10 10 10 11 12 15 15 15 14
3 4 7 4 3 4 2 15 15 11 8 11 7 12 8 18 23 24 32 31 32 33 34 31 26 22 18 16 14 13 12 13 15 17 19 18 14 6 9 12 10 7 7 8 6 8 8 9 10
7 6 8 8 4 2 8 22 13 13 9 8 5 10 6 24 24 26 33 30 32 33 32 31 26 22 20 17 16 15 14 13 13 15 13 14 16 15 11 12 10 7 8 8 7 7 5 3 3
3 8 10 6 8 7 12 21 11 18 11 7 14 6 6 28 27 32 36 32 32 34 34 33 29 23 20 19 18 16 15 15 15 17 17 12 16 18 14 13 13 12 10 11 11 11 9 7 5
5 7 8 14 14 8 16 11 11 12 14 15 16 7 6 25 34 37 41 39 38 39 37 35 32 28 24 22 20 18 17 16 16 17 17 15 13 13 12 12 10 13 15 15 15 16 16 15 13
5 6 14 7 11 10 21 16 25 13 14 14 14 17 12 25 36 42 46 46 45 41 41 39 36 33 29 26 24 21 20 18 16 16 18 18 17 16 17 16 12 10 16 19 19 21 23 22 20
5 9 7 4 3 10 18 16 18 19 6 21 28 22 18 30 35 38 40 42 40 38 39 39 38 37 35 32 30 29 27 24 21 18 17 19 20 21 22 21 21 18 14 16 21 25 26 27 27
4 5 3 3 6 5 10 14 13 24 9 18 22 20 23 29 31 33 34 35 40 39 36 36 36 38 39 38 37 34 33 30 28 24 23 22 21 22 22 24 24 23 22 22 24 27 30 31 32
5 3 4 6 2 4 6 5 5 19 18 14 21 23 27 29 27 26 28 28 31 35 34 35 37 38 38 42 42 41 38 36 32 31 29 28 27 27 26 25 26 27 27 27 27 28 30 34 36
3 4 4 4 5 4 5 5 6 14 21 22 19 22 26 29 29 30 34 32 34 33 33 34 37 37 39 41 42 43 41 39 37 36 34 34 32 32 32 31 29 28 28 29 29 32 34 36 40
1 6 8 8 8 6 6 11 15 15 20 31 26 23 28 31 35 38 31 31 31 32 32 35 38 41 42 42 42 41 41 40 40 37 37 37 36 34 33 33 34 32 31 32 34 35 38 42 43
4 7 3 3 8 4 14 15 7 28 32 32 30 32 40 41 43 41 39 39 39 39 39 38 41 44 46 47 46 45 41 40 41 39 37 37 36 35 35 36 34 32 35 37 39 39 41 45 47
10 4 6 11 3 5 5 12 6 9 21 36 40 44 44 44 48 49 47 48 48 47 46 47 47 48 48 49 50 49 47 45 43 41 41 37 37 37 38 39 37 35 38 41 43 46 47 50 50
12 9 6 7 6 3 3 20 14 17 17 26 30 40 47 51 62 57 58 59 56 57 58 55 54 54 50 50 52 54 52 50 47 47 44 41 39 39 40 42 41 40 43 44 46 49 49 54 57
9 5 4 6 3 5 9 12 26 33 34 39 47 54 55 55 52 50 52 53 51 50 49 56 58 58 58 58 57 56 55 49 48 47 45 43 41 39 40 43 44 42 44 44 46 49 53 57 56
8 7 6 6 5 2 11 18 27 30 27 53 58 61 68 72 76 74 70 65 60 54 48 45 47 48 54 64 64 61 57 53 48 46 43 40 38 38 39 40 41 41 42 43 45 47 52 56 56
2 8 7 4 8 3 11 13 10 7 11 34 51 66 72 76 76 74 69 65 62 63 61 58 51 46 44 40 54 66 67 63 55 46 38 33 31 30 29 30 34 38 41 43 45 46 49 54 57
5 13 11 4 8 7 7 11 11 14 19 13 58 56 56 57 59 66 64 55 54 64 65 65 65 60 52 47 43 52 59 60 54 49 44 39 36 35 36 37 38 40 43 46 46 47 48 51 53
10 8 11 7 7 3 5 2 13 6 14 29 3 6 4 16 32 42 39 44 36 29 32 40 52 62 58 50 43 37 41 45 47 48 47 46 46 45 45 46 43 44 44 44 46 45 43 44 48
14 10 10 7 5 2 13 11 7 9 13 8 4 7 34 31 34 27 28 30 34 30 30 27 35 51 49 44 41 39 36 36 40 43 44 45 45 46 44 40 39 40 40 39 38 40 43 45 50
3 12 2 4 2 11 2 6 11 17 20 13 21 39 36 27 30 20 9 16 24 28 25 20 21 28 33 32 30 30 30 31 33 36 38 38 36 33 32 36 38 41 41 42 43 46 49 51 52
16 12 9 13 8 6 5 13 11 16 37 46 46 36 29 23 19 13 5 14 25 27 25 26 25 24 23 21 19 19 19 21 23 26 28 30 33 36 38 41 42 42 43 44 44 46 48 50 55
11 11 9 10 4 3 8 12 18 15 20 31 37 24 22 10 17 18 23 28 33 35 34 30 27 23 18 15 15 16 18 21 25 28 30 32 34 35 36 37 37 37 38 39 42 46 48 50 53
9 14 6 4 3 9 11 10 12 9 14 11 20 28 21 10 24 31 34 38 39 37 34 30 22 16 13 9 8 12 15 18 21 24 26 28 30 33 35 37 40 42 43 45 47 50 50 53 57
7 7 4 8 10 11 5 12 14 17 9 13 13 12 20 9 28 33 37 38 37 35 31 28 22 14 10 7 7 12 17 20 24 28 30 32 34 35 37 40 43 44 45 47 49 52 54 58 62
5 12 16 9 9 6 3 26 9 14 11 13 25 26 17 8 28 38 37 38 38 36 32 27 22 16 9 8 12 17 22 24 27 31 34 36 37 36 37 39 42 44 46 48 49 52 55 58 62
Wind_Direction_850mb
339 347 348 140 66 67 151 239 182 154 165 165 135 161 193 153 170 184 156 158 157 159 161 160 160 149 140 130 127 133 136 144 146 141 133 131 131 134 118 128 141 112 100 102 105 103 104 100 99
337 345 40 106 90 82 257 223 189 197 152 125 117 123 154 214 175 154 149 157 158 164 163 162 160 157 148 139 135 135 140 144 157 156 142 113 115 136 140 132 144 118 109 108 101 99 106 105 100
333 346 47 91 104 162 189 200 182 162 152 139 127 137 157 205 156 153 156 161 160 166 166 163 162 160 155 147 141 137 144 137 149 156 147 131 121 126 140 124 131 133 123 118 105 99 101 100 96
340 341 62 82 138 248 232 173 163 132 194 196 160 119 154 180 160 163 158 164 162 165 166 166 166 165 162 155 149 146 147 150 139 135 124 153 123 119 128 123 119 118 132 127 110 109 101 95 89
337 38 62 83 292 273 251 171 156 151 163 173 166 194 148 148 149 161 166 170 169 166 167 171 171 171 169 169 165 162 159 158 151 155 151 154 166 123 128 139 127 136 140 142 127 115 108 98 86
104 89 70 161 264 307 123 159 154 157 165 168 178 153 155 163 155 166 169 172 173 174 171 176 177 179 180 178 174 172 173 170 176 172 163 157 185 187 160 153 139 159 170 173 157 136 121 101 88
133 98 173 158 196 183 178 160 160 175 174 205 190 140 177 176 166 169 169 174 177 179 181 184 187 186 186 186 183 181 181 179 185 191 191 177 176 187 191 191 183 179 196 206 216 197 176 141 100
141 89 130 184 180 206 170 168 176 174 196 191 181 199 171 183 174 168 172 179 184 186 191 194 195 196 196 196 193 193 191 188 189 200 212 215 198 192 203 215 213 206 214 223 227 232 228 232 247
157 74 177 190 155 202 163 169 175 176 159 179 194 213 170 177 182 179 180 184 188 193 198 201 204 205 207 208 206 206 206 206 204 210 221 226 223 229 229 230 220 214 221 229 236 241 245 249 256
119 138 214 198 180 174 172 177 165 162 167 205 210 217 211 184 190 192 191 192 194 197 201 205 209 212 215 217 219 222 226 225 222 223 231 234 236 241 250 258 274 244 239 228 237 244 250 255 260
185 197 198 170 173 158 160 171 175 153 217 203 208 210 206 189 193 203 205 206 205 203 206 211 213 216 220 224 226 228 232 235 237 237 241 240 241 248 257 261 269 276 270 253 250 250 255 260 263
249 252 197 139 153 164 166 156 179 194 198 205 206 209 211 198 202 206 210 213 213 213 215 218 220 224 225 228 231 235 238 242 245 247 246 248 250 253 258 263 266 268 270 265 262 258 255 259 264
159 332 213 267 240 168 175 198 212 224 217 204 202 214 210 207 202 206 216 221 224 225 225 227 229 231 233 236 239 239 240 243 247 249 251 252 253 256 259 263 265 266 269 269 266 265 263 263 264
313 271 300 291 255 256 198 214 210 228 214 208 203 207 209 213 210 211 214 221 226 229 230 232 238 240 241 243 247 248 249 251 250 252 253 254 255 255 257 260 265 268 269 269 269 267 266 265 264
359 346 333 220 222 241 187 286 226 206 203 217 215 213 221 223 221 226 229 233 239 244 244 243 244 243 245 248 251 253 253 254 255 254 255 257 256 259 261 263 265 269 272 272 271 271 272 271 272
99 48 126 295 175 242 162 256 296 232 225 229 233 235 234 234 235 236 237 240 242 245 247 251 250 249 249 250 251 254 254 256 259 258 256 255 260 262 264 267 271 273 271 274 275 276 276 276 278
18 180 205 309 186 342 179 269 261 243 215 239 244 245 244 243 241 238 240 245 248 251 251 251 251 253 253 253 254 255 256 254 255 256 257 257 258 264 269 271 273 275 276 274 276 277 280 283 284
193 190 200 235 349 50 231 271 258 259 284 275 266 258 255 254 249 247 249 253 254 254 253 253 250 250 252 254 254 254 255 254 254 255 257 258 258 262 269 274 277 277 277 278 279 281 283 284 286
108 133 180 233 320 308 235 252 278 282 283 270 263 264 264 258 258 253 249 250 252 251 252 249 251 250 248 247 247 249 250 253 254 256 257 260 263 266 268 273 276 277 279 285 284 283 282 284 286
157 142 223 282 344 324 313 284 272 261 250 259 260 260 260 262 263 261 260 257 254 254 252 247 249 252 252 249 248 249 253 256 257 259 260 262 264 265 267 271 276 278 278 280 283 283 285 285 287
227 164 180 229 344 16 332 287 307 305 256 268 263 260 262 263 267 269 267 263 259 254 250 251 249 245 246 252 247 245 247 250 250 249 253 260 264 265 262 266 271 276 279 281 282 284 285 286 288
205 200 183 174 35 248 20 288 305 290 299 243 271 261 266 274 273 270 270 267 263 257 253 251 248 242 239 241 247 243 242 242 244 248 256 259 259 259 262 265 268 273 276 279 283 279 281 283 285
224 153 160 133 160 17 330 256 267 282 286 267 352 286 295 328 313 283 270 258 256 240 241 249 243 230 228 232 237 243 241 241 244 249 253 256 258 260 263 266 269 272 274 275 277 281 285 282 282
150 85 61 63 114 281 218 187 253 209 226 304 183 283 313 319 325 307 268 241 229 227 227 230 228 224 228 227 230 232 235 236 238 244 250 256 261 264 266 270 271 271 270 274 277 278 279 281 282
214 113 349 351 332 235 79 196 258 268 258 236 268 299 309 311 319 325 302 239 217 202 202 203 207 213 218 224 224 222 225 230 238 244 248 253 259 264 269 268 268 270 274 277 278 279 280 282 281
185 169 164 208 204 256 117 233 240 237 279 282 288 299 297 298 297 278 186 178 182 184 183 184 187 199 194 198 205 215 229 239 246 254 259 264 269 271 270 270 271 272 273 276 279 282 285 286 288
194 207 166 105 71 34 221 276 289 282 282 289 295 314 320 283 241 199 171 168 166 168 173 180 185 188 191 205 224 240 248 254 258 260 263 264 266 267 268 270 270 272 275 278 281 282 285 287 288
169 162 91 11 163 260 249 263 230 277 261 280 310 342 334 271 193 176 167 166 169 174 181 183 186 184 181 190 225 245 255 261 269 273 274 274 275 276 277 279 280 281 283 283 284 286 289 290 292
142 201 176 143 174 203 265 260 219 230 250 261 273 7 349 279 205 187 181 179 181 181 185 183 180 184 192 201 232 251 257 265 272 277 280 280 280 279 278 279 281 282 282 283 285 288 291 291 292
257 218 188 169 218 239 194 255 195 215 216 235 285 309 317 296 212 201 199 194 191 187 191 196 198 206 229 263 273 272 269 270 273 277 280 282 282 280 280 279 281 282 283 282 284 288 290 291 292